Theta_e
297 297 297 297 297 297 296 296 296 296 296 296 296 296 296 295 295 294 294 294 294 294 294 294 294 294 293 293 292 291 290 290 290 290 290 290 290 290 290 290 291 292
296 297 296 296 296 296 296 296 296 296 296 296 296 296 296 295 295 294 294 294 294 294 294 294 294 293 293 293 292 291 290 290 290 289 289 289 290 289 289 290 290 291
296 296 296 296 296 296 296 296 296 296 296 296 296 296 295 295 295 294 294 294 294 293 293 293 293 293 292 292 291 291 290 290 289 289 289 289 289 289 289 289 290 290
295 295 295 296 295 295 295 295 295 295 295 295 295 296 296 295 295 294 294 294 293 293 293 292 292 292 291 291 290 290 290 289 289 289 289 289 288 289 289 289 289 289
294 295 295 295 295 295 295 295 295 295 295 295 295 295 295 295 295 295 294 294 293 293 292 292 291 291 291 290 289 289 289 289 288 288 288 288 288 288 288 288 288 288
294 294 294 294 295 295 295 295 295 295 295 295 295 295 294 294 294 294 294 294 294 293 293 292 291 291 290 289 289 289 288 288 288 288 288 288 288 288 288 288 288 288
293 293 293 294 294 294 294 294 294 295 294 294 294 294 294 294 294 294 294 294 294 293 293 292 292 291 290 289 289 288 288 288 288 287 287 287 287 287 287 287 287 287
292 292 292 293 293 293 293 294 294 294 294 294 294 293 293 293 293 293 293 293 293 293 293 292 291 291 290 289 289 288 288 287 287 287 287 287 286 286 286 286 286 286
291 291 291 291 292 292 293 293 293 293 294 293 293 293 293 293 293 293 293 292 292 292 292 291 291 290 290 290 289 288 288 287 287 286 286 286 286 286 286 286 285 285
291 291 290 291 291 291 292 292 292 293 293 293 292 292 292 292 292 292 292 292 291 291 291 291 290 290 290 289 289 288 287 287 287 286 286 286 285 285 286 285 285 285
291 291 290 290 290 290 290 291 291 292 292 292 292 292 292 291 291 291 291 291 291 291 291 291 290 290 290 289 289 288 287 287 287 286 285 285 285 285 285 285 285 285
290 290 290 290 290 289 290 290 290 290 291 291 291 291 291 291 290 290 290 290 291 290 290 290 290 290 289 289 289 288 288 287 286 286 285 285 285 285 285 285 285 285
289 289 290 290 290 289 289 289 289 289 290 290 290 291 291 290 290 290 290 290 290 290 290 290 289 289 289 289 288 288 287 287 286 286 285 285 285 284 284 284 284 285
289 289 289 290 290 290 290 289 289 289 289 289 290 290 290 290 290 290 290 289 289 289 289 289 289 289 289 288 288 287 287 287 286 286 285 285 284 284 284 284 284 284
288 288 288 289 290 290 291 290 289 289 289 288 289 289 289 290 290 290 289 289 288 288 288 289 288 288 288 288 288 287 287 286 286 286 285 284 284 284 283 283 283 283
288 288 288 288 288 290 290 291 290 289 289 288 288 288 289 289 289 289 289 288 288 288 288 288 288 288 288 288 288 287 287 286 286 285 285 284 284 283 283 283 283 283
287 287 287 287 287 288 289 290 291 291 290 289 288 288 288 288 288 288 288 288 288 288 287 287 287 288 288 287 287 287 287 286 286 285 285 284 284 283 283 282 282 282
287 286 286 286 286 287 288 289 290 291 291 290 289 288 288 287 288 288 288 288 288 287 287 287 287 287 287 287 287 287 287 286 286 285 285 284 283 283 283 282 282 281
286 286 286 286 286 287 287 288 289 289 290 290 289 288 288 287 287 287 287 287 287 287 287 287 287 287 287 287 287 286 286 286 286 285 284 284 283 283 282 282 281 281
285 285 285 285 286 287 287 287 287 288 289 289 289 288 288 287 287 287 287 287 286 286 286 286 286 287 286 286 286 286 286 286 286 285 284 284 283 283 282 282 281 281
284 284 284 285 285 286 287 287 287 287 287 288 288 288 287 287 287 286 286 286 286 286 286 286 286 286 286 286 286 286 286 286 286 285 284 284 283 283 282 282 281 281
283 283 283 284 286 286 286 286 286 286 286 287 287 287 287 287 286 286 286 286 286 286 285 285 285 285 285 285 285 285 286 286 286 285 284 283 283 282 282 281 281 280
281 281 282 284 286 286 286 285 285 285 285 285 286 286 286 286 286 286 286 285 285 285 285 285 285 285 285 285 285 285 286 286 286 285 284 283 282 282 281 281 280 280
279 279 281 284 286 286 285 284 284 284 284 284 284 285 285 286 286 285 285 285 284 284 284 284 284 284 284 284 284 285 286 286 286 285 284 283 282 281 281 280 279 279
278 278 281 284 284 283 283 282 282 282 282 283 283 283 284 285 285 285 284 284 284 284 284 284 284 284 284 284 284 285 286 286 286 285 284 283 281 280 280 279 279 278
276 278 280 283 282 281 280 280 280 281 281 281 282 282 283 283 283 284 284 284 284 283 283 283 283 283 283 283 283 285 286 286 286 285 284 282 281 280 279 278 278 277
Wind_Speed
28 27 27 27 28 28 27 27 28 29 32 35 37 40 42 43 44 45 47 48 48 49 50 49 49 48 48 47 47 47 48 48 48 47 46 45 44 42 39 37 36 35
26 27 27 27 27 27 27 28 29 30 33 35 36 37 38 39 40 42 44 46 47 49 49 49 49 49 49 49 49 48 48 48 48 47 47 46 45 44 42 40 38 36
24 25 26 27 28 27 27 27 28 30 33 34 35 36 36 36 38 39 42 44 46 47 47 47 48 49 49 49 49 49 50 50 49 48 47 47 46 45 44 42 40 38
22 24 25 27 28 28 27 27 29 31 32 34 36 36 37 37 37 38 39 41 43 44 45 46 47 47 48 48 48 49 49 49 49 48 47 47 47 47 45 43 41 40
22 23 25 27 28 29 28 28 30 31 32 34 36 36 37 37 37 38 39 41 42 43 44 44 45 46 46 46 47 47 48 48 47 47 48 48 48 47 46 45 43 42
21 22 24 26 27 28 30 31 32 32 33 35 36 36 36 36 38 39 40 41 43 44 44 45 45 45 45 45 46 47 47 48 48 48 48 49 49 48 46 46 45 44
20 21 22 24 26 27 30 32 33 34 34 35 35 36 36 37 38 38 39 41 42 44 45 46 46 46 46 45 46 47 47 47 47 48 49 49 49 48 47 47 46 45
21 21 21 22 25 27 29 30 31 33 34 35 36 36 36 37 38 38 39 40 42 44 45 45 46 46 46 47 47 48 48 47 47 48 50 50 48 48 49 48 46 45
25 23 21 21 22 25 28 29 30 31 33 35 36 36 36 37 38 38 39 40 41 43 43 44 44 45 46 48 49 50 49 48 47 48 50 49 49 50 49 48 46 45
30 28 25 23 22 24 26 27 29 30 31 33 35 35 36 36 37 38 39 39 41 41 42 43 44 45 46 48 49 49 48 47 46 47 49 49 49 50 50 50 49 48
33 32 29 27 26 25 26 27 28 29 30 32 33 34 35 35 36 36 37 39 41 42 42 44 45 46 47 48 49 47 47 46 45 46 48 48 49 49 50 52 52 52
35 34 32 30 28 27 27 27 27 27 28 30 31 33 34 35 35 36 37 39 41 42 42 43 43 44 46 47 48 47 46 46 45 45 47 48 48 48 49 52 53 53
35 35 33 32 30 28 27 26 26 27 27 28 29 30 32 33 34 36 36 38 40 41 41 41 41 43 45 46 46 46 46 46 45 45 46 47 48 48 48 50 52 52
34 35 35 34 33 31 29 27 26 26 26 27 27 28 30 32 33 35 36 37 38 39 40 40 41 42 44 45 45 45 46 46 45 45 46 47 47 47 47 49 51 52
30 32 34 35 35 34 33 31 29 27 26 25 26 27 28 30 32 33 34 36 36 37 38 39 40 43 44 44 44 44 44 45 45 45 46 46 46 45 46 48 49 50
28 30 33 35 35 35 35 34 32 29 27 25 25 25 26 28 30 32 33 34 35 35 36 38 40 42 43 43 45 46 45 44 44 45 44 44 44 43 44 46 47 48
28 29 31 33 34 35 36 36 35 33 30 28 26 25 26 26 28 30 31 33 33 34 36 38 40 41 41 42 45 46 46 44 43 44 43 43 43 43 44 45 46 47
28 30 31 32 32 33 34 35 35 34 33 31 29 27 26 26 26 28 30 31 32 34 36 37 39 40 40 42 44 45 47 46 44 42 42 43 43 44 44 44 45 46
28 29 30 31 31 31 31 32 33 33 32 31 30 28 26 26 26 27 29 30 31 33 35 37 38 39 39 41 42 44 46 47 45 43 42 43 44 44 44 44 44 44
26 27 29 30 30 30 30 31 31 31 31 30 29 28 26 26 27 27 28 29 30 32 35 36 37 38 37 39 40 42 44 46 45 44 43 43 44 44 44 44 45 45
26 27 28 28 28 28 28 30 30 30 31 31 29 27 26 26 26 27 29 29 30 31 33 35 36 36 36 37 38 40 41 43 43 44 43 43 43 44 44 44 45 45
28 29 29 28 26 25 26 27 28 29 31 31 29 28 27 26 26 27 28 30 30 30 32 34 35 35 35 36 37 37 38 39 40 41 42 41 41 41 42 42 43 44
30 31 31 29 26 25 25 26 26 28 29 29 29 29 29 28 28 28 27 29 30 30 31 33 34 34 34 35 36 35 35 36 37 37 39 40 40 39 39 40 41 42
31 32 31 30 28 27 28 29 29 29 28 28 27 28 29 30 30 29 28 28 29 30 31 32 33 33 32 33 34 33 34 36 35 35 36 38 37 35 36 37 37 38
31 31 29 28 29 30 32 33 33 32 31 30 28 28 29 29 29 29 30 29 29 29 30 31 32 32 31 31 31 31 34 36 35 34 34 34 33 32 32 33 34 35
32 30 28 28 30 33 34 35 35 35 34 33 31 30 29 28 27 27 29 31 30 29 29 30 30 30 29 30 30 30 33 35 35 34 33 31 30 30 30 30 32 33
Wind_Direction
237 239 239 240 239 237 235 233 230 226 225 223 222 223 223 223 222 220 220 220 220 221 222 222 222 222 221 221 222 222 222 223 223 223 222 222 222 222 222 223 222 223
241 242 243 244 244 243 240 239 237 233 232 231 229 228 228 226 224 223 223 222 221 222 222 222 222 222 222 221 221 221 221 222 223 223 222 222 222 222 222 223 223 222
247 246 246 246 246 247 245 244 242 240 238 236 234 232 231 230 228 226 225 223 222 223 222 222 222 222 222 221 221 221 221 222 222 222 222 222 222 222 222 222 222 222
255 252 251 250 249 249 249 247 246 244 241 239 237 236 235 233 231 229 228 226 225 224 224 223 223 222 222 221 220 221 221 221 222 221 221 221 221 222 221 221 221 221
265 260 256 255 253 251 251 250 249 248 245 243 241 239 237 234 232 230 229 228 226 226 225 225 224 224 223 222 221 220 220 220 220 220 220 220 220 220 220 220 219 219
280 272 265 262 258 254 252 250 250 250 250 249 246 243 239 235 233 231 229 228 227 226 226 225 225 224 223 222 222 221 220 220 219 219 219 219 219 219 219 219 219 218
302 291 281 273 267 262 257 254 252 252 252 253 250 246 242 239 236 233 231 230 228 227 226 225 225 224 223 222 222 222 221 221 220 219 218 218 218 218 217 218 218 217
330 317 304 290 278 270 265 261 259 256 255 253 251 249 246 242 239 236 233 231 229 228 227 225 224 224 223 222 222 222 221 220 219 218 218 216 216 216 216 216 216 215
356 345 329 310 293 283 277 273 270 266 261 256 252 250 248 244 241 238 235 232 230 229 227 225 224 223 223 223 223 222 221 220 220 218 217 215 214 215 214 213 213 212
8 2 351 334 318 304 295 289 284 278 271 264 258 254 250 247 244 240 236 233 230 228 227 225 225 224 224 224 224 223 222 222 221 220 218 216 215 215 214 212 211 211
7 6 1 352 339 325 315 305 297 288 279 271 265 259 255 251 246 241 237 234 232 230 228 227 226 224 224 224 224 223 223 223 222 221 220 219 217 216 214 214 213 212
4 3 1 358 351 341 331 320 309 299 287 277 270 264 258 253 248 243 239 236 235 233 230 229 227 225 225 225 224 223 223 223 223 223 222 221 219 218 216 215 214 213
1 360 358 357 355 351 344 334 322 310 299 288 279 270 262 255 250 247 243 241 239 236 233 231 228 227 227 226 225 223 223 222 223 223 222 221 221 219 218 217 215 214
357 357 356 356 355 355 352 347 337 325 313 302 290 279 270 262 257 253 249 246 242 238 236 233 231 229 228 226 225 224 223 222 222 222 222 222 221 220 219 218 217 215
353 353 354 355 355 354 353 351 347 340 329 316 303 290 280 272 265 259 254 249 245 241 239 236 233 232 230 227 226 224 223 223 222 222 223 222 221 221 220 219 218 216
349 349 350 351 352 352 351 350 349 346 338 327 315 302 291 281 272 264 257 252 249 245 241 238 236 235 233 230 228 226 224 223 222 222 222 222 222 221 220 219 219 218
346 346 346 346 347 348 349 349 348 346 343 336 326 315 303 291 279 269 261 256 252 249 245 242 240 239 237 234 232 229 226 224 223 223 222 222 222 221 220 219 218 217
343 342 341 341 342 343 344 345 345 344 343 340 334 326 315 302 288 276 268 262 256 252 249 246 245 244 241 238 235 232 229 226 224 223 222 221 222 222 221 219 217 216
339 338 337 336 336 336 337 339 340 340 339 337 334 329 320 307 295 284 274 266 260 255 253 251 250 248 244 241 238 234 231 228 226 225 223 222 222 222 221 220 217 215
335 334 332 331 331 332 333 334 334 334 334 332 330 327 321 311 301 291 281 272 264 259 256 255 253 251 247 243 240 236 232 228 227 226 225 225 224 223 221 220 218 215
332 330 328 327 327 329 330 330 330 329 328 328 326 322 318 312 304 295 286 278 271 264 260 258 256 253 250 246 241 237 232 228 227 226 226 227 226 224 222 220 218 216
330 328 326 324 324 325 325 325 325 324 323 324 322 319 316 311 304 297 289 282 276 269 263 261 260 257 252 248 243 237 231 227 226 226 226 227 227 225 223 221 219 217
326 326 324 322 322 322 322 321 320 319 318 319 318 315 313 309 304 299 292 285 278 271 265 262 261 259 253 249 244 235 227 226 226 225 226 228 228 226 224 221 220 218
321 322 321 319 319 320 320 320 318 316 315 314 312 309 307 306 303 297 291 285 278 272 267 263 262 260 255 250 244 233 226 226 226 224 226 227 227 226 224 221 219 218
317 318 316 314 314 316 317 317 316 314 312 311 308 304 301 301 299 293 288 284 277 273 268 263 262 260 255 250 243 232 226 227 226 223 225 226 225 223 221 220 218 217
315 315 311 309 311 313 314 313 312 311 310 309 306 302 298 295 291 285 282 281 278 274 268 263 260 258 254 249 242 231 226 226 225 223 223 223 221 218 217 216 216 215